Regional Weather Roundup
Issued by NWS

Home | Current Version | Previous Version | Text Only | Print | Product List | Glossary On
Versions: 1 2 3 4 5 6 7 8 9 10 11 12 13 14 15 16 17 18 19 20 21 22 23 24 25 26 27 28 29 30 31 32 33 34 35 36 37 38 39 40 41 42 43 44 45 46 47 48 49 50
000
ASUS44 KEWX 170910
RWRTX
SOUTH TEXAS REGIONAL WEATHER ROUNDUP
NATIONAL WEATHER SERVICE AUSTIN/SAN ANTONIO TX
400 AM CDT THU APR 17 2014

NOTE: "FAIR" INDICATED FEW OR NO CLOUDS BELOW 12,000 FEET WITH NO
SIGNIFICANT WEATHER AND/OR OBSTRUCTIONS TO VISIBILITY.

* - THESE STATIONS ARE NOT NWS OR FAA STATIONS...AND ARE NOT SUBJECT
    TO NWS AND FAA QUALITY CONTROL.

TXZ171-172-183>190-171000-
TEXAS HILL COUNTRY AND EDWARDS PLATEAU

CITY           SKY/WX    TMP DP  RH WIND       PRES   REMARKS
JUNCTION       CLOUDY    58  50  75 S13       29.93S
*LLANO         CLOUDY    57  50  77 SE6       30.00F
BURNET         CLOUDY    56  49  77 SE10      30.01R
*HORSESHOE BAY CLOUDY    57  49  74 SE6       29.97S
*KERRVILLE     CLOUDY    56  52  85 SE13      29.97S
*FREDERICKSBRG CLOUDY    56  51  81 S13G18    29.97R
*ROCKSPRINGS   CLOUDY    55  52  88 SE20G26   29.94F
*BOERNE STAGE  CLOUDY    57  50  77 SE7       29.98S
*CASTROVILLE   CLOUDY    57  51  79 CALM      29.99R
HONDO          CLOUDY    60  53  77 SE9       29.98S
*UVALDE        CLOUDY    59  54  83 SE7       29.96R
DEL RIO        MOCLDY    61  52  72 SE13      29.89S
LAUGHLIN AFB   MOCLDY    60  52  74 SE16      29.90F
CARRIZO SPRGS    N/A     61  54  77 SE8       29.92R
$$

TXZ173-191>194-202-209-217>225-228-171000-
CENTRAL AND SOUTH CENTRAL TEXAS

CITY           SKY/WX    TMP DP  RH WIND       PRES   REMARKS
GEORGETOWN     CLOUDY    55  50  82 SE6       30.01S
AUSTIN/BERGSTM CLOUDY    55  51  86 SE6       30.00R
AUSTIN/MABRY   CLOUDY    56  51  84 SE5       30.01S
*AUSTIN/EXEC   CLOUDY    55  54  94 SE5       30.01S
*LAGO VISTA    CLOUDY    56  51  82 SE10G16   30.00R
SAN MARCOS     CLOUDY    52  45  76 E5        30.01S
NEW BRAUNFELS  CLOUDY    53  50  89 E6        29.97F
RANDOLPH AFB   CLOUDY    54  50  86 SE3       29.98F
PT SAN ANTONIO CLOUDY    58  52  80 SE6       29.96S
SAN ANTONIO    CLOUDY    58  52  80 SE7       29.97F
STINSON FIELD  CLOUDY    59  53  80 SE6       29.96F
*PLEASANTON    HVY RAIN  60  53  78 E5        29.96F
*LA GRANGE     MOCLDY    58  56  93 SE6       29.99S
*GIDDINGS      CLOUDY    56  53  92 E5        30.05S
*GONZALES      MOCLDY    58  55  88 CALM      30.00R
$$

TXZ163>164-176>182-195>201-210>213-226-227-235-171000-
SOUTHEAST TEXAS

CITY           SKY/WX    TMP DP  RH WIND       PRES   REMARKS
COLLEGE STN    MOCLDY    54  51  90 E9        30.04S
*BRYAN         MOCLDY    54  51  92 E8        30.04R
*CALDWELL      MOCLDY    54  52  94 SE5       30.06S
*CROCKETT      MOCLDY    54  52  94 E6        30.11S
*BRENHAM       MOCLDY    56  52  89 E6        30.04S
HUNTSVILLE     CLOUDY    52  49  89 CALM      30.07S
CONROE         CLOUDY    52  50  93 VRB3      30.07S
HOUSTON BUSH   CLOUDY    55  53  93 E8        30.06S
HOUSTON HOBBY  CLOUDY    61  54  77 CALM      30.04S
*HOUSTON SW AP CLOUDY    59  55  87 E5        30.05S
PEARLAND       CLOUDY    60  54  80 E5        30.06S
HOUSTON HOOKS  CLOUDY    55  53  93 E3        30.06S
ELLINGTON FLD  MOCLDY    61  54  77 E3        30.06S
SUGAR LAND     CLOUDY    61  55  81 E8        30.04S
*HOUSTON EXEC  CLOUDY    59  55  88 E7        30.05S
*CLEVELAND MUN CLOUDY    53  51  94 CALM      30.08F
*WHARTON       CLOUDY    59  56  89 NE5       30.03S
$$

TXZ214>216-236>238-171000-
THE UPPER TEXAS COAST

CITY           SKY/WX    TMP DP  RH WIND       PRES   REMARKS
*ORANGE        CLOUDY    56  52  85 E8        30.10R
PORT ARTHUR    CLOUDY    59  52  77 E10       30.07R
GALVESTON      CLOUDY    64  57  78 SE12      30.06R
ANGLETON       CLOUDY    63  56  78 SE8       30.03S
*BAY CITY      CLOUDY    63  58  83 E6        30.02S
PALACIOS       CLOUDY    65  58  78 E10       30.00F
$$

TXZ229>234-239>247-171000-
TEXAS COASTAL BEND AND RIO GRANDE PLAINS

CITY           SKY/WX    TMP DP  RH WIND       PRES   REMARKS
VICTORIA       CLOUDY    59  56  89 NE6       30.00S
*BEEVILLE      CLOUDY    61  56  84 E6        29.97S
ROCKPORT       CLOUDY    67  60  78 SE10      29.97S
*PORT ARANSAS  LGT RAIN  64  62  93 SE9       29.96S
*PORT LAVACA   CLOUDY    64  58  82 SE5       30.00R
*INGLESIDE     LGT RAIN  67  61  80 SE13      29.97R
CORPUS CHRISTI CLOUDY    67  59  75 SE9       29.95F
CORPUS NAS     CLOUDY    66  62  87 SE15      29.95S
*ROBSTOWN      CLOUDY    66  60  81 E8        29.95F
ALICE          CLOUDY    62  58  86 E6        29.94F
KINGSVILLE NAS CLOUDY    62  60  93 E5        29.94F
COTULLA        CLOUDY    61  54  77 SE9       29.94S
*FAITH RANCH   CLOUDY    63  54  72 SE14      29.92R
LAREDO         CLOUDY    65  54  67 E8        29.94S
$$

TXZ248>255-171000-
DEEP SOUTH TEXAS

CITY           SKY/WX    TMP DP  RH WIND       PRES   REMARKS
BROWNSVILLE    CLOUDY    63  60  90 E3        29.92F
PORT ISABEL    CLOUDY    67  62  84 SE9       29.93S
*SOUTH PADRE   LGT RAIN  66  64  94 MISG      29.93S
HARLINGEN      CLOUDY    62  58  86 E6        29.92F
*HEBBRONVILLE  CLOUDY    59  56  88 NE3       29.94S
MCALLEN        CLOUDY    64  57  78 E7        29.91S
*WESLACO       CLOUDY    65  56  74 SE5       29.92R
FALFURRIAS     CLOUDY    62  59  90 E3        29.93F
EDINBURG       CLOUDY    64  57  77 CALM      29.93R
*ZAPATA        CLOUDY    64  55  71 E6        29.90S
$$

TXZ213>215-236>238-242>244-246-247-251-254-255-171000-
CMAN STATIONS

STATION/POSITION TIME  TEMP    WIND        PRES    WAVE
                       AIR SEA DIR/SP/G            HT/PER
                 (UTC) (F)     (DEG/KT/KT) (MB)    (FT/S)
SABINE PASS      0900   63 64  140/ 10/ 11 1018.1
SEA RIM ST PARK  0900   63     120/ 10/ 13 1018.6
NORTH JETTY/GLS  0900   64 68  140/ 16/ 18   N/A
EAGLE POINT      0900   64 57  150/ 12/ 16 1017.4
MORGANS POINT    0900   60 62   70/  8/  9 1018.9
MISSION/ARANSAS  0800   66     130/ 11     1016.0
PORT O`CONNOR    0900          130/ 13/ 15   N/A
PORT ARANSAS     0900   67 66  120/ 14/ 16 1014.6
MALAQUITE BEACH  0900   66 67  100/ 11/ 13 1013.4
BAFFIN BAY       0900   66 63  120/  9/ 11 1013.6
PORT ISABEL      0900   66 66  120/ 10/ 13 1013.5
$$

GMZ080-GMZ150>470-171000-
OFFSHORE BUOY REPORTS

STATION/POSITION TIME  TEMP    WIND        PRES    WAVE
                       AIR SEA DIR/SP/G            HT/PER
                 (UTC) (F)     (DEG/KT/KT) (MB)    (FT/S)
20 E GALVESTON   0900   64 66  110/ 16/ 17 1017.0    4/ 5
35 NE PT MANSFLD 0900   66 69  130/ 16/ 19 1013.9    5/ 5
$$



USA.gov is the U.S. government's official web portal to all federal, state and local government web resources and services.